Flag for Norway Weather past 2 weeks in Mo i Rana, Norway

Now
57 °F

Broken clouds.


Feels Like: 57 °F
Forecast: 40 / 65 °F
Wind: 5 mph from Northwest

Location: Mo I Rana / Rossvoll

Current Time: Aug 27, 2014 at 3:24:08 PM

Latest Report: Aug 27, 2014 at 2:20 PM


Visibility: N/A

Pressure: 29.92 "Hg

Humidity: 63%

Dew point: 45 °F

Location of Mo i RanaLocation

Historic Weather in Mo i Rana — Graph

°F

Mo i Rana temperature yesterday

Maximum temperature yesterday: 64 °F (at 3:50 PM)
Minimum temperature yesterday: 48 °F (at 5:20 AM)
Average temperature yesterday: 57 °F

Past Weeks' High & Low Weather Summary

 TemperatureHumidityPressure
High70 °F (Aug 12, 1:50 PM)94% (Aug 12, 10:50 PM)29.92 "Hg (Aug 12, 10:50 PM)
Low43 °F (Aug 16, 6:20 AM)39% (Aug 24, 11:50 AM)29.30 "Hg (Aug 19, 6:50 AM)
Average57 °F70%29.60 "Hg
* Reported Aug 12 1:50 PM — Aug 27 1:50 PM, Mo i Rana, Weather by CustomWeather, © 2014

Note: Actual official high and low records may vary slightly from our data, if they occured in-between our weather recording intervals... More about our weather records

Advertising

Mo i Rana weather history for previous 24 hours

 ConditionsComfort  
Time TempWeatherWind HumidityBarometerVisibility
1:50 PM
Aug 27
57 °FBroken clouds.6 mph63%29.92 "HgN/A
1:20 PM57 °FBroken clouds.7 mph63%29.92 "HgN/A
12:50 PM57 °FBroken clouds.3 mph67%29.92 "HgN/A
12:20 PM55 °FBroken clouds.3 mph67%29.92 "HgN/A
11:50 AM55 °FBroken clouds.3 mph67%29.92 "HgN/A
11:20 AM55 °FPartly sunny.3 mph67%29.92 "HgN/A
10:50 AM55 °FPartly sunny.3 mph67%29.92 "HgN/A
9:50 AM54 °FScattered clouds.2 mph72%29.92 "HgN/A
9:20 AM54 °FPassing clouds.2 mph72%29.92 "HgN/A
8:50 AM50 °FPassing clouds.2 mph82%29.92 "HgN/A
8:20 AM48 °FScattered clouds.2 mph87%29.92 "HgN/A
7:50 AM45 °FScattered clouds.2 mph87%29.92 "HgN/A
6:50 AM45 °FBroken clouds.2 mph87%29.92 "HgN/A
6:20 AM45 °FQuite cool.No wind93%29.92 "HgN/A
5:50 AM43 °FQuite cool.No wind93%29.92 "HgN/A
9:50 PM
Aug 26
52 °FPassing clouds.2 mph67%29.86 "HgN/A
8:50 PM55 °FPassing clouds.9 mph59%29.83 "HgN/A
6:50 PM61 °FPassing clouds.9 mph48%29.83 "HgN/A
5:50 PM63 °FPassing clouds.9 mph45%29.80 "HgN/A
4:50 PM64 °FPassing clouds.7 mph52%29.80 "HgN/A
4:20 PM64 °FPassing clouds.7 mph52%29.80 "HgN/A
3:50 PM64 °FPassing clouds.2 mph52%29.83 "HgN/A
Weather by CustomWeather, © 2014

See weather overviewHow to use our weather pages